Tracking 29967 objects as of 5-Dec-2024
HD Live streaming from Space Station
objects crossing your sky now

STARLINK-30536

Track STARLINK-30536 now!
10-day predictions
STARLINK-30536 is classified as:


NORAD ID: 57993
Int'l Code: 2023-153C
Perigee: 565.1 km
Apogee: 567.3 km
Inclination: 43.0 °
Period: 95.8 minutes
Semi major axis: 6937 km
RCS: Unknown
Launch date: October 5, 2023
Source: United States (US)
Launch site: AIR FORCE EASTERN TEST RANGE (AFETR)
Your satellite tracking list
Your tracking list is empty




NASA's NSSDC Master Catalog

Two Line Element Set (TLE):
1 57993U 23153C   24340.46420043 -.00000291  00000-0 -64409-5 0  9995
2 57993  43.0045  44.3382 0001553 252.4437 107.6235 15.02542499 65798
Source of the keplerian elements: AFSPC